Location: Branche des Alpilles
(43.6087°N, 4.6976°E)
Time: 09:12:05
(UTC+00:00)

FENGYUN 1C DEB - Pass Details

Date: 25 June 2021
Orbit: 782 x 878 km, 99.7° (Epoch: 28 July)

Event Time Altitude Azimuth Distance (km) Brightness Sun altitude
Exits shadow 00:35:48 15° 125° (SE) 2,052 ? -22.0°
Maximum altitude 00:39:36 36° 66° (ENE) 1,248 ? -21.8°
Drops below altitude 10° 00:44:17 10° 1° (N) 2,359 ? -21.6°
Sets 00:46:45 0° 353° (N) 3,286 ? -21.5°
